Regional Weather Roundup
Issued by NWS

Current Version | Previous Version | Text Only | Print | Product List | Glossary On
Versions: 1 2 3 4 5 6 7 8 9 10 11 12 13 14 15 16 17 18 19 20 21 22 23 24 25 26 27 28 29 30 31 32 33 34 35 36 37 38 39 40 41 42 43 44 45 46 47 48 49 50
000
ASCA42 TJSJ 241210
RWRPR
PUERTO RICO/U.S. VIRGIN ISLANDS HOURLY WEATHER ROUNDUP
NATIONAL WEATHER SERVICE SAN JUAN PR
800 AM AST SUN MAY 24 2015

PRZ001-004-241300-
PUERTO RICO

CITY           SKY/WX    TMP DP  RH WIND       PRES   REMARKS
SAN JUAN LMM   MOSUNNY   81  73  78 E8        30.10R
PONCE          SUNNY     84  70  61 E9        30.01
AGUADILLA      SUNNY     81  70  69 E10       30.10R
CEIBA          PTSUNNY   82  72  69 E10       30.12R
$$

PRZ006-007-241300-
U.S. VIRGIN ISLANDS

CITY           SKY/WX    TMP DP  RH WIND       PRES   REMARKS
CHARLOTTE AMA  CLOUDY    82  72  69 E10       30.08R
CHRISTIANSTED  MOSUNNY   82  70  65 E15       30.09R
$$

HOURLY WEATHER ROUNDUP FOR THE NEWS MEDIA

CITY           SKY/WX    TMP DP  RH WIND       PRES   REMARKS
ORLANDO        SUNNY     78  71  79 E8        30.23R
NEW YORK       MOSUNNY   61  45  55 W14       30.38S
NEWARK         MOSUNNY   58  45  62 SW9       30.37S
CHICAGO        CLOUDY    63  50  62 VRB3      30.18S
HARTFORD       MOSUNNY   59  46  62 W13       30.30S
BOSTON         MOSUNNY   60  37  42 SW14      30.26S
DALLAS         LGT RAIN  67  65  93 SE9       29.89S
PHILADELPHIA   MOSUNNY   59  51  75 SW9       30.40S
LOS ANGELES    CLOUDY    59  52  77 W5        29.99S
WASHINGTON DC  MOSUNNY   59  51  75 S5        30.40R



USA.gov is the U.S. government's official web portal to all federal, state and local government web resources and services.